Regional Weather Roundup
Issued by NWS Albany, NY

Home | Current Version | Previous Version | Text Only | Print | Product List | Glossary On
Versions: 1 2 3 4 5 6 7 8 9 10 11 12 13 14 15 16 17 18 19 20 21 22 23 24 25 26 27 28 29 30 31 32 33 34 35 36 37 38 39 40 41 42 43 44 45 46 47 48 49 50
000
ASUS41 KALY 290810
RWRALY

NEW YORK STATE HOURLY WEATHER ROUNDUP
NATIONAL WEATHER SERVICE ALBANY NY
400 AM EDT SAT APR 29 2017

NOTE: "FAIR" INDICATES FEW OR NO CLOUDS BELOW 12,000 FEET WITH NO
SIGNIFICANT WEATHER AND/OR NO OBSTRUCTIONS TO VISIBILITY.

NYZ032-033-038>043-046>054-057>066-NYZ062>081-082-084-290900-
EAST


CITY           SKY/WX    TMP DP  RH WIND       PRES   REMARKS
ALBANY         DRIZZLE   63  52  67 SE3       29.99F
GLENS FALLS    CLOUDY    59  49  69 N5        29.97R
POUGHKEEPSIE   CLOUDY    62  55  77 N3        30.00S
NEWBURGH       DRIZZLE   63  57  82 CALM      30.03S
MONTGOMERY     CLOUDY    62  52  69 S3        30.02R
WHITE PLAINS   CLOUDY    68  53  58 W5        30.02S
ISLIP          CLOUDY    60  57  89 SW5       30.03F
NEW YORK CITY  CLOUDY    72  59  63 S5        30.01S
CENTRAL PARK   CLOUDY    70  58  65 VRB3      30.04F
$$

NYZ005>009-017-018-044>046-055-056-290900-
CENTRAL


CITY           SKY/WX    TMP DP  RH WIND       PRES   REMARKS
FULTON         CLOUDY    62  48  60 S6        29.95F
SYRACUSE       CLOUDY    63  47  55 CALM      29.95F
ROME           CLOUDY    57  52  83 CALM      29.98F
ELMIRA         CLOUDY    58  46  64 CALM      29.97S
BINGHAMTON     CLOUDY    60  41  49 S5        29.98F
MONTICELLO     CLOUDY    61  45  55 CALM      30.05F
$$

NYZ026>034-041>043-087-290900-
NORTH


CITY           SKY/WX    TMP DP  RH WIND       PRES   REMARKS
WATERTOWN      CLOUDY    60  48  64 SW9       29.94S
FORT DRUM      NOT AVBL
OGDENSBURG     FAIR      57  44  62 SW7       29.93F
MASSENA        CLOUDY    58  43  57 SW12      29.92S
SARANAC LAKE   CLOUDY    50  44  80 SW5       29.93F
PLATTSBURGH    CLOUDY    57  40  52 CALM      29.90F
$$

NYZ001>004-010>016-019>021-085-290900-
WEST


CITY           SKY/WX    TMP DP  RH WIND       PRES   REMARKS
NIAGARA FALLS  CLOUDY    60  47  61 SW8       29.96R
BUFFALO        CLOUDY    60  48  64 SW12      29.97R
DUNKIRK        LGT RAIN  60  53  77 W5        29.99R
JAMESTOWN      CLOUDY    55  48  76 W6        29.99R
WELLSVILLE     CLOUDY    57  47  69 W5        30.01R
ROCHESTER      CLOUDY    63  49  60 W10       29.96R
PENN YAN       CLOUDY    61  44  53 CALM      29.97S
$$

             KEY
       WCI = WIND CHILL INDEX
       VSB = VISIBILITY
       HX  = HEAT INDEX
$$



USA.gov is the U.S. government's official web portal to all federal, state and local government web resources and services.